Home   Weather   Hat Yai   Past weeks

Flag for Thailand Past Weather in Hat Yai, Thailand — Yesterday and Last 2 Weeks

Now
75 °F

Passing clouds.


Feels Like: 73 °F
Forecast: 76 / 92 °F
Wind: No wind

Location: Hat Yai Airport

Current Time: Jul 23, 2017 at 5:59:08 am

Latest Report: Jul 23, 2017 at 5:30 am


Visibility: 5 mi

Pressure: 29.83 "Hg

Humidity: 100%

Dew Point: 75 °F

Location of Hat YaiLocation

Past Weather in Hat Yai — Graph

°F

Hat Yai Temperature Yesterday

Maximum temperature yesterday: 95 °F (at 3:00 pm)
Minimum temperature yesterday: 73 °F (at 5:30 am)
Average temperature yesterday: 83 °F

High & Low Weather Summary for the Past Weeks

 TemperatureHumidityPressure
High97 °F (Jul 18, 2:00 pm)100% (Jul 10, 2:30 am)29.89 "Hg (Jul 10, 2:30 am)
Low73 °F (Jul 14, 11:30 pm)37% (Jul 18, 2:00 pm)29.68 "Hg (Jul 16, 3:00 pm)
Average83 °F78%29.80 "Hg
* Reported Jul 8 4:00 am — Jul 23 4:30 am, Hat Yai. Weather by CustomWeather, © 2017

Note: Actual official high and low records may vary slightly from our data, if they occured in-between our weather recording intervals... More about our weather records

Advertising

Hat Yai Weather History for the Previous 24 Hours

Scroll right to see more
 ConditionsComfort  
Time TempWeatherWind HumidityBarometerVisibility
4:30 am
Sun, Jul 23
77 °FPassing clouds.No wind94%29.83 "Hg4 mi
3:30 am77 °FPassing clouds.2 mph94%29.83 "Hg5 mi
3:00 am77 °FPassing clouds.No wind94%29.83 "Hg4 mi
2:30 am77 °FPassing clouds.No wind94%29.83 "Hg4 mi
2:00 am77 °FPassing clouds.No wind94%29.83 "Hg4 mi
1:30 am79 °FPassing clouds.No wind89%29.83 "Hg4 mi
1:00 am79 °FPassing clouds.No wind94%29.86 "Hg5 mi
12:30 am79 °FPassing clouds.3 mph94%29.86 "Hg5 mi
12:00 am79 °FPassing clouds.3 mph94%29.86 "Hg5 mi
11:30 pm
Sat, Jul 22
79 °FPassing clouds.2 mph94%29.86 "Hg5 mi
11:00 pm79 °FPassing clouds.3 mph94%29.86 "HgN/A
10:30 pm81 °FPassing clouds.2 mph89%29.86 "HgN/A
10:00 pm81 °FPassing clouds.3 mph89%29.86 "HgN/A
9:30 pm81 °FPassing clouds.3 mph89%29.86 "HgN/A
9:00 pm82 °FPassing clouds.2 mph84%29.83 "HgN/A
8:30 pm82 °FPassing clouds.3 mph79%29.83 "HgN/A
8:00 pm84 °FPassing clouds.3 mph74%29.80 "HgN/A
7:30 pm86 °FPassing clouds.3 mph70%29.80 "HgN/A
7:00 pm86 °FPassing clouds.3 mph70%29.80 "HgN/A
6:30 pm88 °FScattered clouds.5 mph66%29.77 "HgN/A
6:00 pm90 °FScattered clouds.7 mph63%29.77 "HgN/A
5:30 pm90 °FScattered clouds.8 mph63%29.74 "HgN/A
5:00 pm91 °FScattered clouds.9 mph59%29.74 "HgN/A
4:30 pm93 °FScattered clouds.9 mph56%29.74 "HgN/A
4:00 pm93 °FScattered clouds.10 mph53%29.74 "HgN/A
3:30 pm93 °FScattered clouds.9 mph53%29.74 "HgN/A
3:00 pm95 °FScattered clouds.8 mph47%29.77 "HgN/A
2:30 pm93 °FScattered clouds.7 mph53%29.77 "HgN/A
2:00 pm93 °FScattered clouds.9 mph49%29.77 "HgN/A
1:30 pm93 °FScattered clouds.7 mph49%29.77 "HgN/A
1:00 pm93 °FScattered clouds.7 mph53%29.80 "HgN/A
12:30 pm91 °FScattered clouds.6 mph52%29.83 "HgN/A
11:30 am91 °FScattered clouds.6 mph56%29.86 "HgN/A
10:30 am88 °FPassing clouds.6 mph66%29.86 "HgN/A
10:00 am86 °FPassing clouds.3 mph70%29.89 "HgN/A
9:30 am84 °FPassing clouds.3 mph79%29.89 "HgN/A
9:00 am82 °FPassing clouds.3 mph79%29.86 "HgN/A
8:30 am79 °FPassing clouds.3 mph89%29.86 "HgN/A
8:00 am79 °FPassing clouds.No wind89%29.86 "HgN/A
7:30 am77 °FPassing clouds.No wind94%29.86 "Hg5 mi
7:00 am75 °FPassing clouds.No wind94%29.83 "Hg6 mi
6:30 am75 °FPassing clouds.2 mph94%29.83 "Hg6 mi
5:30 am73 °FPassing clouds.No wind100%29.80 "Hg6 mi
5:00 am75 °FPassing clouds.No wind94%29.80 "Hg5 mi
Weather by CustomWeather, © 2017

See weather overviewHow to use our weather pages